Zurück zum Katalog

JILIN-1 GAOFEN 07A 04 XING

AktivWissenschaftSSO
NORAD 68693·PAYLOAD·🇨🇳 China
Dieser Satellitenname wurde noch nicht durch offizielle Quellen bestätigt.

Gestartet Apr 14, 2026 von Jiuquan Satellite Launch Center

Loading…

Nächste Überflüge (nächste 24 Stunden)

TLE

AktuellSource: Space-Track

Epoche: Sep 14, 2026, 13:03 UTC

1 68693U 26080C   26257.54385695  .00003943  00000-0  25443-3 0  9995
2 68693  97.6540 332.8507 0015675 108.4946 251.7988 15.08767577 23131

Verfolge JILIN-1 GAOFEN 07A 04 XING in Echtzeit mit AllMySat

Download on the App Store